TimeEDT,TemperatureF,Dew PointF,Humidity,Sea Level PressureIn,VisibilityMPH,Wind Direction,Wind SpeedMPH,Gust SpeedMPH,PrecipitationIn,Events,Conditions,WindDirDegrees,DateUTC
12:53 AM,75.9,73.9,94,30.00,10.0,Calm,Calm,-,N/A,,Scattered Clouds,0,2013-06-02 04:53:00
1:53 AM,75.9,73.9,94,29.97,10.0,Calm,Calm,-,N/A,,Scattered Clouds,0,2013-06-02 05:53:00
2:53 AM,75.9,73.9,94,29.96,10.0,Calm,Calm,-,N/A,,Scattered Clouds,0,2013-06-02 06:53:00
3:53 AM,75.9,73.9,94,29.96,10.0,Calm,Calm,-,N/A,,Scattered Clouds,0,2013-06-02 07:53:00
4:53 AM,75.9,73.9,94,29.96,10.0,Calm,Calm,-,N/A,,Scattered Clouds,0,2013-06-02 08:53:00
5:53 AM,75.9,73.9,94,29.96,10.0,Calm,Calm,-,N/A,,Scattered Clouds,0,2013-06-02 09:53:00
6:53 AM,75.9,73.9,94,29.99,10.0,Calm,Calm,-,N/A,,Scattered Clouds,0,2013-06-02 10:53:00
7:53 AM,75.9,73.9,94,29.99,10.0,Calm,Calm,-,N/A,,Scattered Clouds,0,2013-06-02 11:53:00
8:53 AM,83.5,73.2,71,29.99,10.0,Calm,Calm,-,N/A,,Partly Cloudy,0,2013-06-02 12:53:00
9:53 AM,84.4,75.7,75,30.00,10.0,SSE,6.9,-,N/A,,Partly Cloudy,150,2013-06-02 13:53:00
10:53 AM,84.0,75.7,76,29.99,10.0,SSE,6.9,-,N/A,,Partly Cloudy,150,2013-06-02 14:53:00
11:53 AM,89.1,72.1,57,29.98,10.0,ESE,9.2,-,N/A,,Partly Cloudy,120,2013-06-02 15:53:00
12:53 PM,87.8,73.9,63,29.98,10.0,ESE,12.7,-,N/A,,Scattered Clouds,110,2013-06-02 16:53:00
1:53 PM,86.4,73.2,65,29.97,10.0,SE,13.8,-,N/A,,Mostly Cloudy,130,2013-06-02 17:53:00
2:37 PM,82.4,73.4,74,29.96,10.0,WSW,23.0,26.5,0.00,Rain,Light Rain,240,2013-06-02 18:37:00
2:53 PM,80.1,73.0,79,29.97,10.0,West,11.5,-,0.00,Rain,Light Rain,270,2013-06-02 18:53:00
3:53 PM,87.1,75.0,67,29.95,10.0,Calm,Calm,-,0.00,,Scattered Clouds,0,2013-06-02 19:53:00
4:53 PM,87.1,75.9,69,29.93,10.0,South,8.1,-,N/A,,Scattered Clouds,190,2013-06-02 20:53:00
5:53 PM,82.9,73.0,72,29.94,10.0,WSW,5.8,-,N/A,,Scattered Clouds,240,2013-06-02 21:53:00
6:53 PM,82.9,73.0,72,29.94,10.0,WSW,3.5,-,N/A,,Scattered Clouds,240,2013-06-02 22:53:00
7:53 PM,77.0,75.9,96,29.94,6.0,WSW,8.1,-,N/A,Rain,Light Rain,250,2013-06-02 23:53:00
8:53 PM,78.1,77.0,96,29.96,10.0,Calm,Calm,-,0.00,,Mostly Cloudy,0,2013-06-03 00:53:00
9:53 PM,79.2,76.1,90,29.97,10.0,Calm,Calm,-,N/A,,Partly Cloudy,0,2013-06-03 01:53:00
10:53 PM,76.3,74.5,94,29.99,10.0,Calm,Calm,-,N/A,,Partly Cloudy,0,2013-06-03 02:53:00
11:53 PM,77.0,75.2,94,29.99,10.0,South,4.6,-,N/A,,Partly Cloudy,190,2013-06-03 03:53:00